Powrót do katalogu

FENGYUN 1C DEB

AktywnyPO
NORAD 31731·DEBRIS·🇨🇳 China

Wystrzelony May 10, 1999 z Taiyuan Satellite Launch Center

Loading…

Następne Przeloty (najbliższe 24 godziny)

TLE

ŚwieżeSource: Space-Track

Epoka: Sep 14, 2026, 04:05 UTC

1 31731U 99025CEE 26257.17082235  .00002975  00000-0  90635-3 0  9999
2 31731  99.2927 334.6592 0010203  17.3183 342.8351 14.42825834997996

Śledź FENGYUN 1C DEB w czasie rzeczywistym z AllMySat

Download on the App Store